Flag for U.S.A. Weather past 2 weeks in Chandler, Arizona, U.S.A.

46 °F

Passing clouds.

Feels Like: 45 °F
Forecast: 45 / 64 °F
Wind: 3 mph from East

Location: Williams Gateway Airport

Current Time: Nov 26, 2015 at 3:48:56 AM

Latest Report: Nov 26, 2015 at 3:15 AM

Visibility: 10 mi

Pressure: 29.90 "Hg

Humidity: 57%

Dew point: 32 °F

Location of ChandlerLocation

Historic Weather in Chandler — Graph


Chandler temperature yesterday

Maximum temperature yesterday: 72 °F (at 12:47 PM)
Minimum temperature yesterday: 54 °F (at 12:55 AM)
Average temperature yesterday: 59 °F

Past Weeks' High & Low Weather Summary

High81 °F (Nov 21, 2:47 PM)100% (Nov 15, 11:47 PM)30.27 "Hg (Nov 15, 11:47 PM)
Low36 °F (Nov 17, 4:35 AM)11% (Nov 13, 1:47 PM)29.75 "Hg (Nov 16, 2:55 AM)
Average54 °F47%29.98 "Hg
* Reported Nov 11 5:47 AM — Nov 26 2:35 AM, Chandler, Weather by CustomWeather, © 2015

Note: Actual official high and low records may vary slightly from our data, if they occured in-between our weather recording intervals... More about our weather records


Chandler weather history for previous 24 hours

Time TempWeatherWind HumidityBarometerVisibility
2:35 AM
Thu, Nov 26
46 °FPassing clouds.3 mph62%29.90 "Hg10 mi
2:15 AM46 °FPassing clouds.3 mph62%29.90 "Hg10 mi
1:55 AM46 °FClear.No wind62%29.90 "Hg10 mi
1:35 AM46 °FClear.No wind62%29.90 "Hg10 mi
1:15 AM50 °FClear.No wind58%29.89 "Hg10 mi
12:55 AM48 °FClear.3 mph62%29.89 "Hg10 mi
12:35 AM50 °FClear.No wind58%29.89 "Hg10 mi
12:15 AM50 °FClear.No wind58%29.89 "Hg10 mi
11:47 PM
Wed, Nov 25
55 °FPassing clouds.5 mph51%29.89 "Hg20 mi
10:47 PM55 °FPassing clouds.7 mph59%29.87 "Hg20 mi
9:47 PM57 °FPassing clouds.9 mph51%29.85 "Hg20 mi
8:47 PM57 °FPassing clouds.6 mph51%29.84 "Hg20 mi
7:47 PM57 °FPassing clouds.No wind51%29.83 "Hg20 mi
6:47 PM61 °FPassing clouds.No wind45%29.80 "Hg20 mi
5:47 PM63 °FPassing clouds.No wind39%29.79 "Hg20 mi
4:47 PM64 °FPartly sunny.No wind34%29.78 "Hg45 mi
3:47 PM66 °FBroken clouds.3 mph35%29.78 "Hg45 mi
2:47 PM70 °FPartly sunny.8 mph27%29.77 "Hg45 mi
1:48 PM72 °FPartly sunny.5 mph23%29.78 "Hg45 mi
12:47 PM72 °FPartly sunny.5 mph22%29.80 "Hg45 mi
11:47 AM70 °FOvercast.7 mph25%29.82 "Hg45 mi
10:47 AM68 °FPartly sunny.8 mph28%29.84 "Hg45 mi
9:47 AM63 °FPartly sunny.7 mph37%29.84 "Hg45 mi
8:47 AM57 °FPartly sunny.13 mph44%29.83 "Hg45 mi
7:51 AM55 °FPartly sunny.10 mph44%29.82 "Hg45 mi
6:48 AM55 °FOvercast.7 mph47%29.79 "Hg45 mi
5:50 AM55 °FPassing clouds.9 mph44%29.81 "Hg20 mi
4:47 AM57 °FPassing clouds.10 mph39%29.81 "Hg20 mi
4:15 AM55 °FClear.9 mph41%29.82 "Hg10 mi
3:55 AM55 °FClear.10 mph41%29.82 "Hg10 mi
3:35 AM55 °FClear.10 mph41%29.83 "Hg10 mi
3:15 AM54 °FClear.9 mph44%29.84 "Hg10 mi
Weather by CustomWeather, © 2015

See weather overviewHow to use our weather pages